sat.trackr.live / text

‹ back to catalog

WORLDVIEW-2 (WV-2)

NORAD 35946 · 2009-055A

PAYLOAD ACTIVE UNKNOWN

§ Identity

Operator
Country
US
Launch date
2009-10-08
Launch site
AFWTR
Launch vehicle
Mass (kg)
RCS (m²)
7.03

Purposes: earth_obs

External: N2YO · Heavens-Above · Gunter

§ Orbital elements

Epoch: 2026-05-25T04:48:45.228672Z

Period
100.14 min
Inclination
98.4681°
Eccentricity
0.0003153
Mean motion
14.37937002 rev/d
Perigee alt
763.1 km
Apogee alt
767.6 km
Semi-major
7,143.5 km
B*
4.8457e-5
RAAN
218.9684°
Arg perigee
294.6430°
Mean anomaly
65.4429°
Rev number
87,234

§ Raw data

WORLDVIEW-2 (WV-2)1 35946U 09055A   26145.20052348  .00000103  00000+0  48457-4 0  99932 35946  98.4681 218.9684 0003153 294.6430  65.4429 14.37937002872343

JSON: /api/v1/satellites/35946 · /tle

For live sub-satellite position, see the globe view (requires WebGL).

§ Visibility from observer

Set your observer location to see the next 7 days of passes ≥ 10°. The values pass through the URL so the page stays shareable.

No JS? Fill the form by hand. The geolocation button needs JavaScript.